[[{"header":{"parameterUnit":"m.s-1","parameterCategory":1,"la1":30.2991,"la2":30.254,"lo1":-89.0895,"lo2":-89.0444,"dy":0.0017,"dx":0.0017,"nx":28,"ny":28,"refTime":"2025-03-24T09:00:00:Z","depth":0,"parameterNumber":2,"parameterNumberName":"U-component_of_WINDS"},"data":[0,0,0,0,0,0,0,0,0,0,0,0,0,0,0,0,0,0,0,0,0,0,0,0,0,0,0,0,0,0,0,0,0,0,0,0,0,0,0,0,0,0,0,0,0,0,0,0,0,0,0,0,0,0,0,0,0,0,1.157,1.1571,0,1.1667,1.1668,1.167,1.1662,1.166,1.1659,1.1657,1.1759,1.1763,1.1767,0,0,0,0,0,0,0,0,0,0,0,0,0,1.1379,1.1382,1.157,1.1571,1.1573,1.1667,1.1668,1.167,1.1662,1.166,1.1658,1.1657,1.1758,1.1763,1.1768,0,0,0,0,0,0,0,0,0,0,0,0,0,1.1468,1.1384,1.157,1.158,1.1582,1.1667,1.1669,1.167,1.1662,1.166,1.1658,1.1656,1.1757,1.1762,1.1769,1.1851,0,0,1.1787,1.179,0,0,0,0,0,0,0,0,1.1463,1.1475,1.1577,1.1579,1.1582,1.165,1.1638,1.1731,1.1663,1.1632,1.1657,1.1655,1.1725,1.1734,1.1757,1.1856,1.186,1.1788,1.1792,1.1794,1.1796,0,0,0,0,0,0,0,1.1456,1.147,1.1609,1.1579,1.1581,1.158,1.159,1.1656,1.169,1.1634,1.1634,1.1645,1.1726,1.1751,1.1759,1.1861,1.1788,1.1793,1.1797,1.1799,1.203,1.2033,0,0,0,0,0,0,1.1448,1.1465,1.1606,1.1612,1.1515,1.1585,1.1597,1.163,1.1689,1.1696,1.1647,1.1645,1.1741,1.1752,1.1763,1.1861,1.1794,1.18,1.1803,1.2028,1.2031,1.2034,0,0,0,0,0,0,1.1444,1.146,1.1602,1.1538,1.1556,1.1591,1.1629,1.1633,1.1658,1.1699,1.1705,1.1667,1.174,1.1754,1.1828,1.1865,1.1803,1.1808,1.2025,1.2029,1.2032,1.206,0,0,0,0,0,0,1.1438,1.1459,1.149,1.1539,1.156,1.1665,1.1631,1.1637,1.1669,1.1666,1.1718,1.1725,1.1739,1.1819,1.1834,1.1872,1.1813,1.2022,1.2027,1.2031,1.2056,1.2064,1.2071,0,0,0,0,0,1.1431,1.1495,1.1492,1.1509,1.16,1.1667,1.1679,1.1694,1.1672,1.1704,1.1729,1.1723,1.1858,1.1827,1.1844,1.1884,1.202,1.2025,1.2031,1.2053,1.2063,1.2071,0,0,0,0,0,0,1.1451,1.1502,1.1499,1.158,1.1619,1.1666,1.1707,1.1704,1.1751,1.1747,1.1764,1.1776,1.185,1.1875,1.1839,1.1966,1.1936,1.1945,1.1947,1.1957,1.1964,1.1957,1.1818,0,0,0,0,0,1.1465,1.1515,1.1557,1.1625,1.1645,1.1672,1.1702,1.171,1.1752,1.1769,1.18,1.1841,1.1892,1.1926,1.1976,1.206,1.207,1.2096,1.2103,1.2109,1.2117,1.2162,1.2173,1.2052,1.2052,1.2052,0,0,1.1494,1.1528,1.1559,1.163,1.1661,1.1713,1.1686,1.1743,1.1781,1.1778,1.1849,1.1873,1.192,1.1999,1.2035,1.2021,1.2153,1.2116,1.2121,1.2125,1.2168,1.218,1.219,1.2056,1.2055,1.2054,0,0,1.1573,1.1604,1.1663,1.1695,1.1742,1.1759,1.1774,1.182,1.1836,1.1907,1.1905,1.1951,1.204,1.2073,1.2102,1.2191,1.2187,1.2207,1.2247,1.229,1.23,1.2308,1.2339,1.235,1.2215,1.2215,1.2215,0,1.1603,1.1681,1.1694,1.175,1.1781,1.1779,1.1838,1.1869,1.193,1.1951,1.1935,1.2045,1.2077,1.2162,1.2184,1.2208,1.2224,1.2201,1.2297,1.2306,1.2314,1.2344,1.2355,1.2217,1.2217,1.2217,1.2216,0,1.1715,1.1769,1.1811,1.1869,1.1904,1.1962,1.1984,1.2019,1.2023,1.2042,1.2115,1.2152,1.2209,1.223,1.2236,1.2316,1.2306,1.2293,1.2264,1.2327,1.2355,1.2367,1.222,1.2219,1.2219,1.2218,0,0,1.181,1.1873,1.1888,1.1914,1.1965,1.2007,1.2064,1.2118,1.2147,1.2189,1.2237,1.2312,1.23,1.2332,1.2341,1.2379,1.2446,1.2362,1.2363,1.2375,1.2536,1.2544,1.2557,1.2443,1.2446,1.2448,1.2531,0,1.1893,1.1994,1.2007,1.2097,1.2146,1.2143,1.2193,1.223,1.2249,1.2294,1.2316,1.2368,1.2348,1.2368,1.2405,1.243,1.2478,1.2424,1.2488,1.249,1.2475,1.2572,1.2582,1.2659,1.2542,1.2544,1.2546,0,1.2004,1.2048,1.2142,1.2185,1.2206,1.225,1.23,1.2343,1.2384,1.2396,1.2431,1.2434,1.2493,1.2461,1.2543,1.2505,1.2532,1.2548,1.2552,1.2558,1.2521,1.258,1.2684,1.2695,1.2563,1.2562,1.2561,0,1.2062,1.2145,1.2211,1.2233,1.2285,1.2316,1.234,1.2379,1.241,1.2454,1.2474,1.2524,1.2552,1.2591,1.2608,1.2583,1.2687,1.2657,1.2698,1.2698,1.272,1.2718,1.2829,1.2739,1.2739,1.2738,1.2738,0,1.2154,1.2211,1.2238,1.2279,1.2342,1.2357,1.242,1.2442,1.2476,1.2521,1.2523,1.2565,1.2585,1.2631,1.2644,1.2709,1.2722,1.2732,1.2735,1.2731,1.273,1.2749,1.2744,1.2742,1.2741,1.274,1.274,0,1.2229,1.225,1.2321,1.2364,1.2376,1.2421,1.2458,1.2497,1.2516,1.2572,1.2587,1.2616,1.2669,1.269,1.2756,1.2765,1.2838,1.2838,1.2824,1.2825,1.2864,1.2859,1.299,1.3007,1.2906,1.2907,1.2908,0,1.2285,1.2329,1.2376,1.2406,1.243,1.2478,1.2509,1.2525,1.2557,1.2607,1.264,1.2693,1.2736,1.2821,1.2848,1.2898,1.2897,1.294,1.2905,1.2899,1.2896,1.2893,1.2897,1.2946,1.2947,1.2948,1.2948,0,1.2383,1.239,1.2435,1.2483,1.252,1.2559,1.2597,1.2621,1.2643,1.2679,1.2733,1.2766,1.2832,1.2884,1.2934,1.2958,1.2957,1.2959,1.2971,1.2967,1.2957,1.2962,1.284,1.2956,1.2955,1.2955,1.2954,1.2954,1.245,1.2488,1.2526,1.2576,1.2605,1.264,1.2679,1.2702,1.2746,1.28,1.2807,1.2864,1.2903,1.2971,1.2997,1.3042,1.3031,1.3049,1.3053,1.3057,1.3059,1.295,1.3052,1.3052,1.3051,1.3051,1.3051,0,1.2546,1.257,1.2616,1.2667,1.2706,1.2701,1.2742,1.2774,1.2825,1.2861,1.2902,1.2963,1.3014,1.3044,1.3094,1.3124,1.3125,1.3137,1.3134,1.314,1.3067,1.3051,1.3136,1.3136,1.3136,1.3136,1.3136,1.3136,1.26,1.2664,1.2676,1.2754,1.2778,1.2834,1.2857,1.2889,1.2918,1.2986,1.3027,1.3046,1.308,1.3132,1.3178,1.3185,1.3203,1.3216,1.3223,1.3154,1.3145,1.3137,1.3122,1.322,1.322,1.3292,1.3293,1.3293]},{"header":{"parameterUnit":"m.s-1","parameterCategory":1,"la1":30.2991,"la2":30.254,"lo1":-89.0895,"lo2":-89.0444,"dy":0.0017,"dx":0.0017,"nx":28,"ny":28,"refTime":"2025-03-24T09:00:00:Z","depth":0,"parameterNumber":3,"parameterNumberName":"V-component_of_WINDS"},"data":[0,0,0,0,0,0,0,0,0,0,0,0,0,0,0,0,0,0,0,0,0,0,0,0,0,0,0,0,0,0,0,0,0,0,0,0,0,0,0,0,0,0,0,0,0,0,0,0,0,0,0,0,0,0,0,0,0,0,3.0991,3.0992,0,3.1011,3.1011,3.1012,3.0988,3.0988,3.0987,3.0986,3.1004,3.1005,3.1006,0,0,0,0,0,0,0,0,0,0,0,0,0,3.093,3.0931,3.0991,3.0992,3.0992,3.1011,3.1011,3.1012,3.0989,3.0988,3.0987,3.0986,3.1003,3.1005,3.1006,0,0,0,0,0,0,0,0,0,0,0,0,0,3.0954,3.0932,3.0991,3.0983,3.0982,3.1011,3.1011,3.1012,3.0989,3.0988,3.0986,3.0985,3.1003,3.1005,3.1007,3.1044,0,0,3.1012,3.1013,0,0,0,0,0,0,0,0,3.0953,3.0956,3.0984,3.0983,3.0983,3.0996,3.0996,3.1022,3.0989,3.0986,3.0986,3.0984,3.1002,3.1004,3.101,3.1045,3.1046,3.1013,3.1014,3.1015,3.1015,0,0,0,0,0,0,0,3.0951,3.0955,3.0999,3.0984,3.0984,3.0977,3.0979,3.1001,3.1001,3.0986,3.0985,3.0988,3.1002,3.1009,3.1011,3.1046,3.1013,3.1014,3.1015,3.1016,3.1109,3.111,0,0,0,0,0,0,3.0951,3.0954,3.0998,3.1,3.0964,3.0979,3.0981,3.0993,3.1001,3.1001,3.0989,3.0986,3.1006,3.1008,3.1011,3.1054,3.1015,3.1016,3.1017,3.1108,3.1109,3.1111,0,0,0,0,0,0,3.0949,3.0955,3.0998,3.0976,3.0981,3.0981,3.0995,3.0994,3.1001,3.1002,3.1002,3.0996,3.1005,3.1009,3.1035,3.1054,3.1017,3.1019,3.1106,3.1108,3.111,3.114,0,0,0,0,0,0,3.0948,3.0955,3.097,3.0977,3.0983,3.1023,3.0996,3.0995,3.1005,3.1002,3.1009,3.1009,3.1004,3.1033,3.1037,3.1056,3.102,3.1104,3.1107,3.1109,3.1137,3.1143,3.1147,0,0,0,0,0,3.0946,3.0978,3.0971,3.0976,3.1002,3.1024,3.1027,3.1022,3.1007,3.1021,3.1021,3.1009,3.1051,3.1036,3.1041,3.106,3.1103,3.1106,3.1109,3.1135,3.1141,3.1147,0,0,0,0,0,0,3.0973,3.0979,3.0971,3.1007,3.1015,3.102,3.1039,3.1029,3.1042,3.1038,3.103,3.1032,3.106,3.1063,3.1046,3.1095,3.1075,3.1079,3.1092,3.1099,3.1104,3.1102,3.1022,0,0,0,0,0,3.0983,3.1002,3.1005,3.1036,3.1041,3.1039,3.1048,3.1043,3.1051,3.1055,3.1057,3.1065,3.1079,3.1089,3.1103,3.1137,3.1138,3.1153,3.1158,3.1162,3.1165,3.1181,3.1188,3.112,3.112,3.112,0,0,3.1004,3.101,3.1022,3.1042,3.1048,3.1065,3.1042,3.1063,3.1075,3.1058,3.1083,3.1085,3.1093,3.1123,3.1136,3.1126,3.1184,3.1166,3.1169,3.117,3.1185,3.1192,3.1197,3.1122,3.1122,3.1122,0,0,3.1051,3.1058,3.1084,3.109,3.1099,3.1097,3.1103,3.1109,3.111,3.1135,3.1121,3.1136,3.1162,3.1167,3.1174,3.122,3.1209,3.1225,3.1251,3.1267,3.1272,3.1277,3.1292,3.1297,3.1229,3.1229,3.1229,0,3.1076,3.1104,3.1098,3.1118,3.1126,3.1111,3.1135,3.1141,3.1155,3.116,3.1148,3.1179,3.1184,3.1214,3.1225,3.1231,3.1236,3.1224,3.1272,3.1277,3.1281,3.1295,3.1301,3.123,3.123,3.123,3.123,0,3.1133,3.1152,3.1171,3.1183,3.1194,3.1216,3.1212,3.1223,3.1216,3.1215,3.124,3.1244,3.1257,3.1264,3.1258,3.1293,3.1286,3.1274,3.1252,3.1289,3.1302,3.1308,3.1233,3.1232,3.1232,3.1231,0,0,3.1198,3.1206,3.1213,3.1217,3.1225,3.1239,3.126,3.1273,3.1282,3.1291,3.1307,3.1328,3.1316,3.1323,3.1317,3.1331,3.1366,3.1317,3.1317,3.1324,3.1402,3.1411,3.1417,3.1358,3.1359,3.136,3.1401,0,3.1244,3.1281,3.1275,3.131,3.1326,3.131,3.1328,3.1334,3.1333,3.1346,3.1344,3.1359,3.1343,3.1347,3.136,3.1359,3.1381,3.1356,3.1372,3.1372,3.1369,3.1424,3.1434,3.1472,3.1406,3.1407,3.1407,0,3.1303,3.1314,3.135,3.1353,3.136,3.1376,3.1386,3.1399,3.1405,3.1403,3.141,3.1401,3.142,3.1399,3.1424,3.1407,3.1413,3.1413,3.1414,3.1415,3.1392,3.1425,3.1484,3.149,3.1416,3.1415,3.1414,0,3.1345,3.1368,3.1393,3.1397,3.1402,3.1413,3.1416,3.142,3.1428,3.1437,3.1441,3.1452,3.1458,3.1466,3.1459,3.1445,3.1485,3.1464,3.1482,3.1482,3.1491,3.149,3.1551,3.1497,3.1497,3.1497,3.1496,0,3.1396,3.1419,3.1411,3.1426,3.145,3.1442,3.1465,3.1466,3.147,3.1483,3.1471,3.1483,3.1474,3.1486,3.1481,3.1501,3.1505,3.1503,3.1501,3.1503,3.1503,3.1506,3.1503,3.1498,3.1498,3.1497,3.1497,0,3.1447,3.1443,3.1468,3.147,3.1471,3.1488,3.149,3.1503,3.15,3.1517,3.1521,3.1517,3.153,3.1524,3.1538,3.1534,3.156,3.1555,3.1558,3.1557,3.1575,3.1573,3.1639,3.1647,3.1589,3.1589,3.159,0,3.148,3.1496,3.15,3.1508,3.1511,3.1525,3.1532,3.1524,3.1532,3.1538,3.155,3.1562,3.1571,3.1592,3.1589,3.1599,3.1594,3.1616,3.1595,3.1597,3.1593,3.1591,3.1592,3.162,3.1621,3.1622,3.1622,0,3.1537,3.1534,3.1545,3.1555,3.1564,3.1572,3.1578,3.1585,3.1577,3.1587,3.1599,3.1606,3.162,3.1631,3.1639,3.164,3.163,3.1629,3.1633,3.1635,3.1636,3.1634,3.1568,3.1627,3.1627,3.1626,3.1626,3.1626,3.1579,3.1592,3.1596,3.1608,3.1612,3.1617,3.1629,3.1628,3.1638,3.1649,3.1643,3.1658,3.1661,3.1671,3.1673,3.1684,3.1675,3.1682,3.1684,3.1685,3.1687,3.1635,3.1685,3.1685,3.1685,3.1685,3.1685,0,3.1634,3.1635,3.1646,3.1655,3.1664,3.1653,3.1659,3.1668,3.1681,3.1685,3.1693,3.1707,3.1717,3.1716,3.1725,3.1733,3.1729,3.1736,3.1735,3.1735,3.1695,3.169,3.174,3.174,3.174,3.174,3.174,3.174,3.1664,3.1685,3.1681,3.1704,3.1704,3.1719,3.1723,3.1727,3.173,3.1746,3.1755,3.1753,3.1755,3.1763,3.1772,3.1771,3.1774,3.1784,3.1781,3.1743,3.1738,3.1733,3.1727,3.1785,3.1785,3.1819,3.182,3.182]}]]